DW5247 Lemo FI current weather conditions

sailwx.info

Wind from 090

Air temperature 9.4° C
Dewpoint 7.4° C

Last reported at 2014-Aug-22 22:52 UTC.
Time now 2014-Aug-22 23:40 UTC

Location: N 62°41' E 029°49'.
View on Google Maps.

See reports from other nearby stations

  
Tides and Currents Weather Stations Pressure Air Temp Water Temp Dewpoint Dewpoint Depression Visibility Wind Speed Wind Dir Waves Ship Positions
date/time (UTC)wind fromknots sea level pressurealtimeterstation pressurevisibilityair tempwater tempwave heightnotes
2014-Aug-22 22:52 090 9.4
2014-Aug-22 22:47 090 9.4
2014-Aug-22 22:42 090 9.4
2014-Aug-22 22:37 090 9.4
2014-Aug-22 22:32 090 9.4
2014-Aug-22 22:27 090 9.4
2014-Aug-22 22:22 090 10.0
2014-Aug-22 22:17 090 10.0
2014-Aug-22 22:12 090 10.0
2014-Aug-22 22:07 090 10.0
2014-Aug-22 22:02 090 10.6
2014-Aug-22 21:57 090 10.0
2014-Aug-22 21:52 090 10.6
2014-Aug-22 21:47 090 10.6
2014-Aug-22 21:42 090 10.6
2014-Aug-22 21:37 090 10.6
2014-Aug-22 21:32 090 10.6
2014-Aug-22 21:27 090 11.1
2014-Aug-22 21:22 090 11.1
2014-Aug-22 21:17 090 11.1
2014-Aug-22 21:12 090 11.1
2014-Aug-22 21:07 090 11.7
2014-Aug-22 20:57 090 11.7
2014-Aug-22 20:52 090 11.7
2014-Aug-22 20:47 090 11.7
2014-Aug-22 20:42 090 11.7
2014-Aug-22 20:37 090 11.7
2014-Aug-22 20:32 090 11.7
2014-Aug-22 20:27 090 11.7
2014-Aug-22 20:22 045 11.7
2014-Aug-22 20:17 090 11.7
2014-Aug-22 20:12 068 11.7
2014-Aug-22 20:07 068 11.7
2014-Aug-22 20:02 068 11.7
2014-Aug-22 19:57 068 11.7
2014-Aug-22 19:52 068 11.7
2014-Aug-22 19:47 068 11.7
2014-Aug-22 19:42 068 12.2
2014-Aug-22 19:37 068 12.2
2014-Aug-22 19:32 068 12.2
2014-Aug-22 19:27 068 12.2
2014-Aug-22 19:22 068 12.2
2014-Aug-22 19:17 068 12.2
2014-Aug-22 19:12 068 12.2
2014-Aug-22 19:07 068 12.8
2014-Aug-22 19:02 068 12.2
2014-Aug-22 18:57 068 12.8
2014-Aug-22 18:52 068 12.8
2014-Aug-22 18:47 068 12.8
2014-Aug-22 18:42 068 12.8
2014-Aug-22 18:37 068 12.8
2014-Aug-22 18:32 068 13.3
2014-Aug-22 18:27 068 13.3
2014-Aug-22 18:22 068 13.3
2014-Aug-22 18:17 068 13.3
2014-Aug-22 18:12 068 13.3
2014-Aug-22 18:07 068 13.3
2014-Aug-22 18:02 068 13.9
2014-Aug-22 17:57 068 13.9
2014-Aug-22 17:52 068 13.9
2014-Aug-22 17:47 090 13.9
2014-Aug-22 17:42 068 13.9
2014-Aug-22 17:37 068 14.4
2014-Aug-22 17:32 045 14.4
2014-Aug-22 17:27 045 14.4
2014-Aug-22 17:22 045 14.4
2014-Aug-22 17:17 068 14.4
2014-Aug-22 17:12 068 15.0
2014-Aug-22 17:07 045 15.0
2014-Aug-22 17:02 113 15.0
2014-Aug-22 16:57 158 15.0
2014-Aug-22 16:52 158 15.6
2014-Aug-22 16:47 068 15.6
2014-Aug-22 16:42 113 0 gusting 2 15.6
2014-Aug-22 16:37 090 0 gusting 2 15.6
2014-Aug-22 16:32 045 1 gusting 3 15.6
2014-Aug-22 16:27 225 1 gusting 3 16.1
2014-Aug-22 16:22 315 1 gusting 3 16.1
2014-Aug-22 16:17 068 1 gusting 3 16.1
2014-Aug-22 16:12 068 1 gusting 2 16.1
2014-Aug-22 16:07 045 0 gusting 1 16.1
2014-Aug-22 16:02 068 16.1
2014-Aug-22 15:57 113 16.1
2014-Aug-22 15:52 090 16.1
2014-Aug-22 15:47 113 16.1
2014-Aug-22 15:42 113 16.1
2014-Aug-22 15:37 045 16.1
2014-Aug-22 15:32 090 0 gusting 1 16.1
2014-Aug-22 15:27 315 0 gusting 2 16.1
2014-Aug-22 15:22 068 0 gusting 2 16.1
2014-Aug-22 15:17 090 0 gusting 2 16.1
2014-Aug-22 15:12 090 0 gusting 2 16.1
2014-Aug-22 15:07 113 0 gusting 2 16.1
2014-Aug-22 15:02 090 0 gusting 2 16.1
2014-Aug-22 14:57 068 16.1
2014-Aug-22 14:52 090 0 gusting 2 16.1
2014-Aug-22 14:47 113 0 gusting 2 16.1
2014-Aug-22 14:42 068 1 gusting 2 16.1
2014-Aug-22 14:37 090 0 gusting 2 16.7
2014-Aug-22 14:32 068 0 gusting 2 16.7
2014-Aug-22 14:27 068 0 gusting 1 16.7
2014-Aug-22 14:22 135 0 gusting 1 16.7
2014-Aug-22 14:17 045 0 gusting 2 16.7
2014-Aug-22 14:12 113 0 gusting 3 16.7
2014-Aug-22 14:07 068 1 gusting 3 16.7
2014-Aug-22 14:02 090 0 gusting 3 16.7
2014-Aug-22 13:57 180 0 gusting 1 16.7
2014-Aug-22 13:52 068 0 gusting 1 16.7
2014-Aug-22 13:47 113 0 gusting 1 16.7
2014-Aug-22 13:42 068 0 gusting 1 16.7
2014-Aug-22 13:37 113 16.7
2014-Aug-22 13:32 090 16.7
2014-Aug-22 13:27 090 16.7
2014-Aug-22 13:22 090 16.7
2014-Aug-22 13:17 113 16.7
2014-Aug-22 13:12 045 16.7
2014-Aug-22 13:07 090 0 gusting 2 16.7
2014-Aug-22 13:02 068 0 gusting 1 16.7
2014-Aug-22 12:57 045 16.7
2014-Aug-22 12:52 180 16.7
2014-Aug-22 12:47 068 16.7
2014-Aug-22 12:42 090 16.7
2014-Aug-22 12:37 135 16.7
2014-Aug-22 12:32 135 0 gusting 1 16.7
2014-Aug-22 12:27 045 0 gusting 1 16.7
2014-Aug-22 12:22 023 0 gusting 1 16.7
2014-Aug-22 12:17 225 0 gusting 5 17.2
2014-Aug-22 12:12 113 1 gusting 6 17.2
2014-Aug-22 12:07 068 2 gusting 6 16.7
2014-Aug-22 12:02 135 1 gusting 6 16.7
2014-Aug-22 11:57 225 0 gusting 5 17.2
2014-Aug-22 11:52 068 1 gusting 5 16.7
2014-Aug-22 11:47 135 2 gusting 5 16.7
2014-Aug-22 11:42 180 1 gusting 5 16.7
2014-Aug-22 11:37 135 2 gusting 5 16.7
2014-Aug-22 11:32 203 2 gusting 5 16.7
2014-Aug-22 11:27 113 0 gusting 3 16.7
2014-Aug-22 11:22 203 0 gusting 1 16.7
2014-Aug-22 11:17 090 0 gusting 0 16.7
2014-Aug-22 11:12 113 17.2
2014-Aug-22 11:07 068 0 gusting 5 17.2
2014-Aug-22 11:02 135 2 gusting 5 17.2
2014-Aug-22 10:57 135 1 gusting 5 17.2
2014-Aug-22 10:52 158 0 gusting 3 17.2
2014-Aug-22 10:47 090 0 gusting 3 17.2
2014-Aug-22 10:42 113 1 gusting 4 17.2
2014-Aug-22 10:37 135 1 gusting 4 17.2
2014-Aug-22 10:32 158 1 gusting 6 16.7
2014-Aug-22 10:27 158 1 gusting 6 16.7
2014-Aug-22 10:22 180 0 gusting 6 16.7
2014-Aug-22 10:17 180 1 gusting 6 16.7
2014-Aug-22 10:12 135 1 gusting 4 16.7
2014-Aug-22 10:07 135 1 gusting 3 16.7
2014-Aug-22 10:02 090 1 gusting 3 16.7
2014-Aug-22 09:57 180 0 gusting 3 16.7
2014-Aug-22 09:52 045 0 gusting 2 16.1
2014-Aug-22 09:47 090 0 gusting 2 16.1
2014-Aug-22 09:42 113 0 gusting 3 16.1
2014-Aug-22 09:37 113 0 gusting 3 16.1
2014-Aug-22 09:32 090 1 gusting 3 16.1
2014-Aug-22 09:27 045 0 gusting 2 16.1
2014-Aug-22 09:22 113 0 gusting 2 16.1
2014-Aug-22 09:17 068 0 16.1
2014-Aug-22 09:12 068 0 gusting 3 16.1
2014-Aug-22 09:07 113 0 gusting 3 16.1
2014-Aug-22 09:02 113 0 gusting 3 16.1
2014-Aug-22 08:57 113 0 gusting 4 16.1
2014-Aug-22 08:52 068 0 gusting 4 16.1
2014-Aug-22 08:47 023 1 gusting 3 16.1
2014-Aug-22 08:42 045 1 gusting 3 16.1
2014-Aug-22 08:37 113 0 gusting 3 16.1
2014-Aug-22 08:32 113 0 gusting 3 15.6
2014-Aug-22 08:27 113 0 gusting 3 15.6
2014-Aug-22 08:22 203 0 gusting 3 15.6
2014-Aug-22 08:17 068 0 gusting 2 15.6
2014-Aug-22 08:12 203 1 gusting 2 15.0
2014-Aug-22 08:07 315 1 gusting 2 15.6
2014-Aug-22 08:02 068 1 gusting 2 15.0
2014-Aug-22 07:57 180 1 gusting 3 15.0
2014-Aug-22 07:52 090 1 gusting 3 15.0
2014-Aug-22 07:47 113 1 gusting 3 15.0
2014-Aug-22 07:42 14.4
2014-Aug-22 07:37 14.4
2014-Aug-22 07:32 090 1 gusting 4 14.4
2014-Aug-22 07:27 113 1 gusting 5 14.4
2014-Aug-22 07:22 135 1 gusting 5 13.9
2014-Aug-22 07:17 135 0 gusting 5 13.9
2014-Aug-22 07:12 135 1 gusting 2 13.9
2014-Aug-22 07:07 068 1 gusting 2 13.3
2014-Aug-22 07:02 068 0 gusting 1 13.3
2014-Aug-22 06:57 045 13.3
2014-Aug-22 06:52 158 12.8
2014-Aug-22 06:47 090 12.8
2014-Aug-22 06:42 090 12.8
2014-Aug-22 06:37 090 12.8
2014-Aug-22 06:32 135 12.8
2014-Aug-22 06:27 023 12.8
2014-Aug-22 06:22 023 12.2
2014-Aug-22 06:17 315 12.2
2014-Aug-22 06:12 315 12.2
2014-Aug-22 06:07 315 12.2
2014-Aug-22 06:02 338 12.2
2014-Aug-22 05:57 023 11.7
2014-Aug-22 05:52 023 11.7
2014-Aug-22 05:47 023 11.7
2014-Aug-22 05:42 023 11.7
2014-Aug-22 05:37 315 11.7
2014-Aug-22 05:32 315 11.1
2014-Aug-22 05:27 338 11.1
2014-Aug-22 05:22 338 11.1
2014-Aug-22 05:17 023 11.1
2014-Aug-22 05:12 023 0 gusting 2 11.1
2014-Aug-22 05:07 315 1 gusting 2 10.6
2014-Aug-22 05:02 315 0 gusting 1 10.6
2014-Aug-22 04:57 068 10.6
2014-Aug-22 04:52 068 10.6
2014-Aug-22 04:47 068 10.6
2014-Aug-22 04:42 068 10.6
2014-Aug-22 04:37 068 10.6
2014-Aug-22 04:32 068 10.6
2014-Aug-22 04:27 068 10.6
2014-Aug-22 04:22 068 10.0
2014-Aug-22 04:17 068 10.0
2014-Aug-22 04:12 068 10.0
2014-Aug-22 04:07 068 10.0
2014-Aug-22 04:02 068 10.0
2014-Aug-22 03:57 068 10.0
2014-Aug-22 03:52 068 10.0
2014-Aug-22 03:47 068 10.0
2014-Aug-22 03:42 068 10.0
2014-Aug-22 03:37 068 10.0
2014-Aug-22 03:32 068 10.0
2014-Aug-22 03:27 068 0 gusting 1 10.0
2014-Aug-22 03:22 068 10.0
2014-Aug-22 03:17 068 9.4
2014-Aug-22 03:12 068 9.4
2014-Aug-22 03:07 068 1 gusting 2 10.0
2014-Aug-22 03:02 068 1 gusting 2 10.0
2014-Aug-22 02:57 068 1 gusting 2 10.0
2014-Aug-22 02:52 068 0 gusting 1 10.0
2014-Aug-22 02:47 068 10.0
2014-Aug-22 02:42 068 10.0
2014-Aug-22 02:37 068 10.0
2014-Aug-22 02:32 068 10.0
2014-Aug-22 02:27 068 10.0
2014-Aug-22 02:22 068 10.0
2014-Aug-22 02:17 068 10.0
2014-Aug-22 02:12 068 10.0
2014-Aug-22 02:07 068 10.0
2014-Aug-22 02:02 068 10.0
2014-Aug-22 01:57 068 10.0
2014-Aug-22 01:52 068 10.0
2014-Aug-22 01:47 068 10.0
2014-Aug-22 01:42 068 10.0
2014-Aug-22 01:37 068 10.6
2014-Aug-22 01:32 068 10.6
2014-Aug-22 01:27 068 10.0
2014-Aug-22 01:22 068 10.6
2014-Aug-22 01:17 068 10.6
2014-Aug-22 01:12 068 10.6
2014-Aug-22 01:07 068 0 gusting 1 10.6
2014-Aug-22 01:02 068 0 gusting 1 10.6
2014-Aug-22 00:57 068 10.6
2014-Aug-22 00:52 068 10.6
2014-Aug-22 00:47 068 10.6
2014-Aug-22 00:42 068 10.6
2014-Aug-22 00:37 068 10.6
2014-Aug-22 00:32 068 10.6
2014-Aug-22 00:27 068 10.6
2014-Aug-22 00:22 068 11.1
2014-Aug-22 00:17 068 11.1
2014-Aug-22 00:12 068 11.1
2014-Aug-22 00:07 068 11.1
2014-Aug-22 00:02 068 11.1
2014-Aug-21 23:57 068 11.1
2014-Aug-21 23:52 068 11.1
2014-Aug-21 23:47 045 11.1
2014-Aug-21 23:42 045 11.1
2014-Aug-21 23:37 068 11.1
2014-Aug-21 23:32 068 11.1
2014-Aug-21 23:27 068 11.1
2014-Aug-21 23:22 068 11.1
2014-Aug-21 23:17 068 11.7
2014-Aug-21 23:12 045 11.7
2014-Aug-21 23:07 045 11.7
2014-Aug-21 23:02 045 11.7
2014-Aug-21 22:57 068 11.7
2014-Aug-21 22:52 068 11.7
2014-Aug-21 22:47 045 11.7
2014-Aug-21 22:42 068 11.7
2014-Aug-21 22:37 068 11.7
2014-Aug-21 22:32 068 11.7
2014-Aug-21 22:27 068 12.2
2014-Aug-21 22:22 068 12.2
2014-Aug-21 22:17 068 12.2
2014-Aug-21 22:12 068 12.2
2014-Aug-21 22:07 068 12.2
2014-Aug-21 22:02 068 12.8
2014-Aug-21 21:57 068 0 gusting 1 12.8
2014-Aug-21 21:52 068 12.8
2014-Aug-21 21:47 068 12.8
2014-Aug-21 21:42 068 12.8
2014-Aug-21 21:37 068 12.8
2014-Aug-21 21:32 158 13.3
2014-Aug-21 21:27 158 12.8
2014-Aug-21 21:22 135 13.3
2014-Aug-21 21:17 090 13.3
2014-Aug-21 21:12 068 13.3
2014-Aug-21 21:07 090 13.3
2014-Aug-21 20:57 090 13.3
2014-Aug-21 20:52 090 13.3
2014-Aug-21 20:47 090 13.3
2014-Aug-21 20:42 090 13.3
2014-Aug-21 20:37 090 13.9
2014-Aug-21 20:32 113 13.3
2014-Aug-21 20:27 090 0 gusting 1 13.3
2014-Aug-21 20:22 068 13.9
2014-Aug-21 20:17 045 13.9
2014-Aug-21 20:12 023 13.9
2014-Aug-21 20:07 068 13.9
2014-Aug-21 20:02 090 13.9
2014-Aug-21 19:57 068 13.9
2014-Aug-21 19:52 090 13.9
2014-Aug-21 19:47 090 13.9
2014-Aug-21 19:42 068 13.9
2014-Aug-21 19:37 090 13.9
2014-Aug-21 19:32 113 13.9
2014-Aug-21 19:27 045 13.9
2014-Aug-21 19:22 068 0 gusting 1 13.9
2014-Aug-21 19:17 068 13.9
2014-Aug-21 19:12 068 14.4
2014-Aug-21 19:07 090 14.4
2014-Aug-21 19:02 090 14.4
2014-Aug-21 18:57 090 14.4
2014-Aug-21 18:52 090 14.4
2014-Aug-21 18:47 090 14.4
2014-Aug-21 18:42 090 14.4
2014-Aug-21 18:37 090 15.0
2014-Aug-21 18:32 113 15.0
2014-Aug-21 18:27 068 15.0
2014-Aug-21 18:22 068 0 gusting 1 15.0
2014-Aug-21 18:17 068 0 gusting 1 15.0
2014-Aug-21 18:12 068 15.0
2014-Aug-21 18:07 315 0 gusting 4 15.6
2014-Aug-21 18:02 135 0 gusting 1 15.6
2014-Aug-21 17:57 068 0 gusting 2 15.6
2014-Aug-21 17:52 068 0 gusting 2 15.6
2014-Aug-21 17:47 068 0 gusting 2 15.6
2014-Aug-21 17:42 113 0 gusting 2 15.6
2014-Aug-21 17:37 090 0 gusting 2 15.6
2014-Aug-21 17:32 180 0 gusting 2 15.6
2014-Aug-21 17:27 068 0 gusting 2 16.1
2014-Aug-21 17:22 068 16.1
2014-Aug-21 17:17 045 16.1
2014-Aug-21 17:12 045 16.1
2014-Aug-21 17:07 135 0 gusting 1 16.1
2014-Aug-21 17:02 023 0 gusting 1 16.1
2014-Aug-21 16:57 068 0 gusting 3 16.1
2014-Aug-21 16:52 045 16.1
2014-Aug-21 16:47 135 0 gusting 3 16.7
2014-Aug-21 16:42 135 1 gusting 3 16.7
2014-Aug-21 16:37 090 1 gusting 3 16.7
2014-Aug-21 16:32 023 1 gusting 3 16.7
2014-Aug-21 16:27 068 1 gusting 1 16.7
2014-Aug-21 16:22 068 0 gusting 3 16.7
2014-Aug-21 16:17 045 0 gusting 3 16.7
2014-Aug-21 16:12 135 1 gusting 3 16.7
2014-Aug-21 16:07 045 1 gusting 3 16.7
2014-Aug-21 16:02 16.7
2014-Aug-21 15:57 045 0 gusting 2 16.7
2014-Aug-21 15:52 068 0 gusting 2 16.7
2014-Aug-21 15:47 068 0 gusting 2 16.7
2014-Aug-21 15:42 090 0 gusting 2 16.7
2014-Aug-21 15:37 068 1 gusting 2 16.7
2014-Aug-21 15:32 225 0 gusting 2 16.7
2014-Aug-21 15:27 090 0 gusting 1 16.7
2014-Aug-21 15:22 158 0 gusting 1 16.7
2014-Aug-21 15:17 068 0 gusting 1 17.2
2014-Aug-21 15:12 023 0 gusting 1 17.2
2014-Aug-21 15:07 045 1 gusting 1 17.2
2014-Aug-21 15:02 113 0 gusting 5 17.2
2014-Aug-21 14:57 090 1 gusting 5 17.2
2014-Aug-21 14:52 068 2 gusting 5 17.2
2014-Aug-21 14:47 068 2 gusting 4 17.8
2014-Aug-21 14:42 17.8
2014-Aug-21 14:37 068 1 gusting 4 17.8
2014-Aug-21 14:32 068 1 gusting 4 17.8
2014-Aug-21 14:27 068 1 gusting 4 17.8
2014-Aug-21 14:22 068 1 gusting 5 17.8
2014-Aug-21 14:17 18.3
2014-Aug-21 14:12 023 1 gusting 3 18.3
2014-Aug-21 14:07 158 0 gusting 2 18.3
2014-Aug-21 14:02 113 0 gusting 3 18.3
2014-Aug-21 13:57 068 0 gusting 3 18.3
2014-Aug-21 13:52 113 2 gusting 3 18.3
2014-Aug-21 13:47 090 2 gusting 3 18.3
2014-Aug-21 13:42 090 2 gusting 6 18.3
2014-Aug-21 13:37 135 2 gusting 6 18.3
2014-Aug-21 13:32 135 2 gusting 6 18.3
2014-Aug-21 13:27 113 3 gusting 6 18.3
2014-Aug-21 13:22 068 2 gusting 5 17.8
2014-Aug-21 13:17 090 1 gusting 5 17.8
2014-Aug-21 13:12 068 1 gusting 5 17.8
2014-Aug-21 13:07 068 1 gusting 5 17.8
2014-Aug-21 13:02 113 1 gusting 3 17.8
2014-Aug-21 12:57 180 1 gusting 3 17.8
2014-Aug-21 12:52 068 2 gusting 4 17.8
2014-Aug-21 12:47 045 3 gusting 5 17.8
2014-Aug-21 12:42 068 3 gusting 5 18.3
2014-Aug-21 12:37 113 2 gusting 5 17.8
2014-Aug-21 12:32 090 2 gusting 4 17.8
2014-Aug-21 12:27 045 2 gusting 8 17.8
2014-Aug-21 12:22 090 2 gusting 8 17.8
2014-Aug-21 12:17 158 2 gusting 3 17.8
2014-Aug-21 12:12 113 2 gusting 4 17.8
2014-Aug-21 12:07 023 2 gusting 6 17.8
2014-Aug-21 12:02 023 3 gusting 6 17.8
2014-Aug-21 11:57 113 2 gusting 6 17.8
2014-Aug-21 11:52 113 2 gusting 4 17.8
2014-Aug-21 11:47 090 3 gusting 8 17.8
2014-Aug-21 11:42 068 3 gusting 8 17.8
2014-Aug-21 11:37 135 3 gusting 8 17.2
2014-Aug-21 11:32 293 3 gusting 3 17.2
2014-Aug-21 11:27 17.2
2014-Aug-21 11:22 045 1 gusting 5 17.2
2014-Aug-21 11:17 338 2 gusting 4 17.2
2014-Aug-21 11:12 135 2 gusting 4 16.7
2014-Aug-21 11:07 045 3 gusting 4 16.7
2014-Aug-21 11:02 023 2 gusting 4 16.7
2014-Aug-21 10:57 113 1 gusting 6 16.7
2014-Aug-21 10:52 113 1 gusting 6 16.7
2014-Aug-21 10:47 113 1 gusting 3 16.7
2014-Aug-21 10:42 16.7
2014-Aug-21 10:37 045 1 gusting 3 16.7
2014-Aug-21 10:32 270 1 gusting 5 16.7
2014-Aug-21 10:27 068 2 gusting 5 16.7
2014-Aug-21 10:22 045 2 gusting 7 16.7
2014-Aug-21 10:17 113 2 gusting 7 16.7
2014-Aug-21 10:12 068 2 gusting 7 16.7
2014-Aug-21 10:07 135 2 gusting 3 16.1
2014-Aug-21 10:02 023 1 gusting 5 16.1
2014-Aug-21 09:57 113 1 gusting 6 16.1
2014-Aug-21 09:52 113 1 gusting 6 16.1
2014-Aug-21 09:47 113 2 gusting 6 16.1
2014-Aug-21 09:42 225 1 gusting 5 16.1
2014-Aug-21 09:37 180 1 gusting 4 16.1
2014-Aug-21 09:32 158 1 gusting 4 16.1
2014-Aug-21 09:27 113 1 gusting 6 15.6
2014-Aug-21 09:22 068 2 gusting 6 15.6
2014-Aug-21 09:17 180 2 gusting 6 15.6
2014-Aug-21 09:12 180 1 gusting 6 15.6
2014-Aug-21 09:07 045 2 gusting 6 15.0
2014-Aug-21 09:02 045 2 gusting 5 15.0
2014-Aug-21 08:57 158 1 gusting 2 15.0
2014-Aug-21 08:52 090 1 gusting 2 15.0
2014-Aug-21 08:47 135 0 gusting 1 14.4
2014-Aug-21 08:42 023 14.4
2014-Aug-21 08:37 090 14.4
2014-Aug-21 08:32 068 14.4
2014-Aug-21 08:27 090 14.4
2014-Aug-21 08:22 023 0 gusting 3 14.4
2014-Aug-21 08:17 113 0 gusting 2 14.4
2014-Aug-21 08:12 225 0 gusting 5 14.4
2014-Aug-21 08:07 203 1 gusting 5 14.4
2014-Aug-21 08:02 113 1 gusting 5 14.4
2014-Aug-21 07:57 135 0 gusting 2 14.4
2014-Aug-21 07:52 158 0 gusting 3 14.4
2014-Aug-21 07:47 113 1 gusting 3 14.4
2014-Aug-21 07:42 068 0 gusting 1 14.4
2014-Aug-21 07:37 113 0 gusting 4 14.4
2014-Aug-21 07:32 090 0 gusting 4 14.4
2014-Aug-21 07:27 113 0 gusting 5 14.4
2014-Aug-21 07:22 135 0 gusting 5 13.9
2014-Aug-21 07:17 068 0 gusting 4 13.9
2014-Aug-21 07:12 113 0 gusting 4 13.9
2014-Aug-21 07:07 293 0 gusting 4 13.9
2014-Aug-21 07:02 045 1 gusting 3 13.9
2014-Aug-21 06:57 113 1 gusting 3 13.9
2014-Aug-21 06:52 135 1 gusting 3 13.9
2014-Aug-21 06:47 113 0 gusting 2 13.9
2014-Aug-21 06:42 045 0 gusting 1 13.9
2014-Aug-21 06:37 068 13.3
2014-Aug-21 06:32 068 13.3
2014-Aug-21 06:27 135 0 gusting 2 13.3
2014-Aug-21 06:22 113 0 gusting 2 13.3
2014-Aug-21 06:17 045 1 gusting 3 13.3
2014-Aug-21 06:12 068 0 gusting 3 13.3
2014-Aug-21 06:07 068 0 gusting 3 13.3
2014-Aug-21 06:02 113 0 gusting 1 13.3
2014-Aug-21 05:57 068 13.3
2014-Aug-21 05:52 068 12.8
2014-Aug-21 05:47 135 12.8
2014-Aug-21 05:42 068 0 gusting 1 12.8
2014-Aug-21 05:37 090 0 gusting 1 12.8
2014-Aug-21 05:32 068 0 gusting 1 12.8
2014-Aug-21 05:27 12.8
2014-Aug-21 05:22 12.2
2014-Aug-21 05:17 045 0 gusting 4 12.2
2014-Aug-21 05:12 023 0 gusting 4 12.2
2014-Aug-21 05:07 045 0 gusting 4 12.2
2014-Aug-21 05:02 023 0 gusting 2 12.2
2014-Aug-21 04:57 068 0 gusting 1 12.2
2014-Aug-21 04:52 068 0 gusting 2 12.2
2014-Aug-21 04:47 023 12.2
2014-Aug-21 04:42 045 0 gusting 2 12.2
2014-Aug-21 04:37 045 0 gusting 2 12.2
2014-Aug-21 04:32 023 12.2
2014-Aug-21 04:27 12.2
2014-Aug-21 04:22 068 12.2
2014-Aug-21 04:17 12.2
2014-Aug-21 04:12 023 0 gusting 2 12.2
2014-Aug-21 04:07 338 12.2
2014-Aug-21 04:02 090 12.2
2014-Aug-21 03:57 023 0 gusting 2 12.2
2014-Aug-21 03:52 023 0 gusting 1 12.2
2014-Aug-21 03:47 023 12.2
2014-Aug-21 03:42 023 12.2
2014-Aug-21 03:37 023 12.2
2014-Aug-21 03:32 023 11.7
2014-Aug-21 03:27 068 11.7
2014-Aug-21 03:22 113 12.2
2014-Aug-21 03:17 023 12.2
2014-Aug-21 03:12 068 0 gusting 0 11.7
2014-Aug-21 03:07 068 11.7
2014-Aug-21 03:02 068 11.7
2014-Aug-21 02:57 090 11.7
2014-Aug-21 02:52 113 1 gusting 3 11.7
2014-Aug-21 02:47 023 2 gusting 3 11.7
2014-Aug-21 02:42 023 1 gusting 2 11.7
2014-Aug-21 02:37 023 1 gusting 2 11.7
2014-Aug-21 02:32 023 1 gusting 3 11.7
2014-Aug-21 02:27 068 1 gusting 3 11.7
2014-Aug-21 02:22 248 0 gusting 2 11.7
2014-Aug-21 02:17 338 0 gusting 2 12.2
2014-Aug-21 02:12 113 1 gusting 3 11.7
2014-Aug-21 02:07 068 0 gusting 3 11.7
2014-Aug-21 02:02 068 0 gusting 3 11.7
2014-Aug-21 01:57 045 1 gusting 3 12.2
2014-Aug-21 01:52 023 1 gusting 3 12.2
2014-Aug-21 01:47 023 1 gusting 3 12.2
2014-Aug-21 01:42 023 0 gusting 2 12.2
2014-Aug-21 01:37 023 12.2
2014-Aug-21 01:32 023 12.2
2014-Aug-21 01:27 068 0 gusting 3 12.2
2014-Aug-21 01:22 023 0 gusting 3 12.2
2014-Aug-21 01:17 023 0 gusting 3 12.2
2014-Aug-21 01:12 023 0 gusting 3 12.2
2014-Aug-21 01:07 045 0 gusting 3 12.2
2014-Aug-21 01:02 023 0 gusting 2 12.2
2014-Aug-21 00:57 045 0 gusting 2 12.2
2014-Aug-21 00:52 045 0 gusting 2 12.2
2014-Aug-21 00:47 023 12.2
2014-Aug-21 00:42 068 0 gusting 2 12.2
2014-Aug-21 00:37 023 0 gusting 2 12.2
2014-Aug-21 00:32 068 12.2
2014-Aug-21 00:27 023 0 gusting 2 12.2
2014-Aug-21 00:22 068 0 gusting 2 12.2
2014-Aug-21 00:17 068 12.2
2014-Aug-21 00:12 023 0 gusting 2 12.2
2014-Aug-21 00:07 023 0 gusting 2 12.2
2014-Aug-21 00:02 023 0 gusting 1 12.2
2014-Aug-20 23:57 023 0 gusting 1 12.2
2014-Aug-20 23:52 023 0 gusting 2 12.2
2014-Aug-20 23:47 023 0 gusting 2 12.2
2014-Aug-20 23:42 023 0 gusting 2 12.2
2014-Aug-20 23:37 023 0 gusting 2 12.2
2014-Aug-20 23:32 023 0 gusting 2 12.2
2014-Aug-20 23:27 023 0 gusting 2 12.2
2014-Aug-20 23:22 023 0 gusting 2 12.2
2014-Aug-20 23:17 338 12.2
2014-Aug-20 23:12 045 0 gusting 3 12.2
2014-Aug-20 23:07 023 0 gusting 3 12.2
2014-Aug-20 23:02 023 0 gusting 2 12.2